BEIDOU-2 G7

Last updated on Thu Nov 21 2024 00:02:43 GMT+0000 (Coordinated Universal Time)

1 41586U 16037A 24325.55967597 -.00000352 00000+0 00000+0 0 9999 2 41586 1.7544 67.0585 0006817 339.7465 325.2624 1.00267546 1137
UTC large
Height (km)
Speed (km/s)
/
Latitude / Longitude
Inclination (degrees)
Orbital Period (minutes)
Azimuth
Elevation
Range (km)
Doppler Factor

Next 0 passes for location: London (51.5072 / 0.1276)

Sorry there are no passes over London.